Regional Weather Roundup
Issued by NWS

Home | Current Version | Previous Version | Text Only | Print | Product List | Glossary On
Versions: 1 2 3 4 5 6 7 8 9 10 11 12 13 14 15 16 17 18 19 20 21 22 23 24 25 26 27 28 29 30 31 32 33 34 35 36 37 38 39 40 41 42 43 44 45 46 47 48 49 50
000
ASUS45 KPSR 040800
RWRAZ

ARIZONA HOURLY REGIONAL WEATHER ROUNDUP
NATIONAL WEATHER SERVICE PHOENIX AZ
100 AM MST SAT JUL 04 2015

NOTE: FAIR INDICATES FEW OR NO CLOUDS BELOW 12,000 FEET WITH NO
SIGNIFICANT WEATHER AND/OR OBSTRUCTIONS TO VISIBILITY.

AZZ001>003-036-040900-
NORTHWEST ARIZONA

CITY           SKY/WX    TMP DP  RH WIND       PRES   REMARKS
KINGMAN        CLOUDY    84  50  30 E10G23    29.95S
$$

AZZ004>008-015-016-018-040900-
NORTH CENTRAL ARIZONA

CITY           SKY/WX    TMP DP  RH WIND       PRES   REMARKS
GRAND CANYON   CLOUDY    62  57  83 NE5       30.21F
WILLIAMS       CLOUDY    63  54  72 SE12      30.28F
PRESCOTT       MOCLDY    69  60  73 S6        30.09F
FLAGSTAFF      NOT AVBL
PAYSON         CLOUDY    70  54  56 NE7G15    30.08F
PAGE           CLOUDY    82  53  36 S16G23    29.99S
$$

AZZ009>014-017-040900-
NORTHEAST ARIZONA

CITY           SKY/WX    TMP DP  RH WIND       PRES   REMARKS
WINSLOW        NOT AVBL
SAINT JOHNS    CLOUDY    67  60  78 N8        30.15S
WINDOW ROCK    MOCLDY    61  56  83 CALM      30.22S
SHOW LOW       CLOUDY    59  55  88 E5        30.21S
$$

AZZ023-040900-
GREATER PHOENIX AREA

CITY           SKY/WX    TMP DP  RH WIND       PRES   REMARKS
PHOENIX        PTCLDY    88  65  46 SW7       29.76S
LUKE AFB       PTCLDY    90  61  37 N7        29.76F
DEER VALLEY    MOCLDY    84  63  49 N9        29.78F
SCOTTSDALE     MOCLDY    85  65  51 NW6       29.79F
$$

AZZ027-028-040900-
SOUTHWEST MARICOPA COUNTY AND PINAL COUNTY

CITY           SKY/WX    TMP DP  RH WIND       PRES   REMARKS
CASA GRANDE    PTCLDY    86  61  42 CALM      29.78F
GILA BEND      FAIR      93  61  33 N14       29.74S
$$

AZZ503-504-507>509-040900-
SOUTHEAST ARIZONA

CITY           SKY/WX    TMP DP  RH WIND       PRES   REMARKS
TUCSON         MOCLDY    86  52  30 W5        29.88S
DAVIS-MONTHAN  PTCLDY    86  53  32 W3        29.86F
NOGALES        MOCLDY    75  58  55 E6        29.98S
SIERRA VISTA   MOCLDY    78  53  42 VRB2      30.05F
SAFFORD        MOCLDY    81  63  54 E8        29.92R
$$

AZZ020-021-025-026-031-040900-
SOUTHWEST ARIZONA

CITY           SKY/WX    TMP DP  RH WIND       PRES   REMARKS
YUMA           NOT AVBL
$$

CAZ031-033-041-043-047-048-061-040900-
SOUTHERN CALIFORNIA

CITY           SKY/WX    TMP DP  RH WIND       PRES   REMARKS
DOWNTOWN L.A.  MOCLDY    63  59  87 CALM      29.89S
L.A. AIRPORT   CLOUDY    62  59  90 W8        29.89F
SAN DIEGO      CLOUDY    68  60  75 CALM      29.91S
BURBANK        CLEAR     66  59  78 SE7       29.88F
ONTARIO        PTCLDY    68  56  65 W6        29.89F
RIVERSIDE      CLEAR     69  55  60 W3        29.90S
PALM SPRINGS   MOCLDY    93  53  25 NW10      29.72S
EL CENTRO NAS  PTCLDY    91  53  27 W12       29.69F
IMPERIAL       MOCLDY    87  58  37 W9        29.67S
BLYTHE         MOCLDY    94  57  28 CALM      29.71F
$$

NVZ020-UTZ003-040900-
SOUTHERN NEVADA-UTAH

CITY           SKY/WX    TMP DP  RH WIND       PRES   REMARKS
LAS VEGAS      NOT AVBL
SALT LAKE CITY MOCLDY    80  51  36 S5        29.90F
$$

NMZ009-TXZ055-040900-
NEW MEXICO-WEST TEXAS

CITY           SKY/WX    TMP DP  RH WIND       PRES   REMARKS
ALBUQUERQUE    CLOUDY    75  53  46 CALM      30.15R
EL PASO        CLOUDY    80  59  48 CALM      30.02S
$$


........................KEY........................
SKY/WX - SKY CONDITION/WEATHER
TMP    - TEMPERATURE IN FAHRENHEIT
DP     - DEW POINT IN FAHRENHEIT
RH     - RELATIVE HUMIDITY IN PERCENT
WIND   - DIRECTION AND SPEED IN MILES PER HOUR (MPH)
VRB    - VARIABLE WIND DIRECTION
PRES   - MEAN SEA LEVEL PRESSURE IN INCHES OF MERCURY
         F - FALLING PRESSURE   R - RISING PRESSURE
         S - STEADY PRESSURE
VSB    - VISIBILITY IN MILES
HX     - HEAT INDEX IN FAHRENHEIT
WCI    - WIND CHILL INDEX IN FAHRENHEIT
TC     - TEMPERATURE IN CELSIUS WHICH IS ALSO KNOWN AS
         TEMPERATURE IN CENTIGRADE
AFB    - AIR FORCE BASE
         LUKE AFB IS LUKE AIR FORCE BASE
         DAVIS-MONTHAN IS DAVIS-MONTHAN AIR FORCE BASE
NAS    - NAVAL AIR STATION
         EL CENTRO NAS IS EL CENTRO NAVAL AIR STATION
N/A    - NOT AVAILABLE



USA.gov is the U.S. government's official web portal to all federal, state and local government web resources and services.